Here are the VEGA CubeSat KEPs for this week. Any ideas what Objects D, E, G, and H are?
ALMASAT1 1 38078U 12006B 12068.77140888 .00020258 00000-0 58358-3 0 322 2 38078 069.4905 184.0849 0774171 013.9618 348.1812 14.05190928 3425 MO-72 1 38079U 12006C 12068.74614665 .00049706 00000-0 12707-2 0 628 2 38079 069.4791 184.0020 0776189 013.9280 348.2144 14.07095269 3418 OBJECT D 1 38080U 12006D 12068.53634304 .00052302 00000-0 13561-2 0 624 2 38080 069.4884 184.4842 0775871 014.1749 347.9948 14.06868348 3388 OBJECT E 1 38081U 12006E 12068.53665835 .00044234 00000-0 11464-2 0 645 2 38081 069.4898 184.4879 0776188 014.1744 347.9857 14.06830445 3387 XATCOBEO 1 38082U 12006F 12068.60743025 .00051495 00000-0 13595-2 0 714 2 38082 069.4874 184.3227 0773553 014.0476 348.0910 14.06994646 3399 OBJECT G 1 38083U 12006G 12068.74920746 .00047487 00000-0 12457-2 0 742 2 38083 069.4903 184.0075 0774266 013.9466 348.1667 14.06983343 3415 OBJECT H 1 38084U 12006H 12068.75277684 .00041457 00000-0 10844-2 0 637 2 38084 069.4908 184.0135 0776300 013.9017 348.2880 14.06625048 3414 GOLIAT 1 38085U 12006J 12068.75280724 .00042716 00000-0 11180-2 0 629 2 38085 069.4888 184.0139 0776150 013.8992 348.2310 14.06641561 3416